Regional Weather Roundup
Issued by NWS

Home | Current Version | Previous Version | Text Only | Print | Product List | Glossary Off
Versions: 1 2 3 4 5 6 7 8 9 10 11 12 13 14 15 16 17 18 19 20 21 22 23 24 25 26 27 28 29 30 31 32 33 34 35 36 37 38 39 40 41 42 43 44 45 46 47 48 49 50

000
ASUS43 KLMK 250602
RWRKY
KENTUCKY REGIONAL WEATHER ROUNDUP
NATIONAL WEATHER SERVICE LOUISVILLE KY
100 AM EST SUN JAN 25 2015

NOTE "FAIR" INDICATES FEW OR NO CLOUDS BELOW 12,000 FEET
WITH NO SIGNIFICANT WEATHER AND/OR OBSTRUCTIONS TO VISIBILITY.

KYZ001>023-026-027-061>063-070>075-250700-
WESTERN AND SOUTH CENTRAL KENTUCKY

CITY           SKY/WX    TMP DP  RH WIND       PRES   REMARKS
PADUCAH        MOCLDY    43  31  62 SW9       29.80F
HENDERSON      MOCLDY    41  30  65 SW8       29.78F
OWENSBORO      CLEAR     37  32  82 S6        29.80F WCI  32
HOPKINSVILLE   CLEAR     38  30  70 SW10      29.84F WCI  32
BOWLING GREEN  CLOUDY    35  28  75 S5        29.86S WCI  31
GLASGOW        NOT AVBL
$$

KYZ024-025-028>034-038-045-046-053-250700-
NORTH CENTRAL KENTUCKY

CITY           SKY/WX    TMP DP  RH WIND       PRES   REMARKS
LOUISVILLE/SDF CLOUDY    37  31  78 SE7       29.80F WCI  32
LOUISVILLE/LOU CLOUDY    37  31  78 S5        29.80F WCI  33
FORT KNOX      CLOUDY    35  30  82 S7        29.79F WCI  29
$$

KYZ035>037-039>044-047>052-055>060-089>105-250700-
NORTHEAST KENTUCKY

CITY           SKY/WX    TMP DP  RH WIND       PRES   REMARKS
LEXINGTON      PTCLDY    34  29  82 S12       29.82F WCI  25
COVINGTON      CLOUDY    33  29  85 S7        29.77S WCI  27
FRANKFORT      MOCLDY    34  29  82 S8        29.80F WCI  27
$$

KYZ054-064>069-076>088-106>120-250700-
SOUTHEAST KENTUCKY

CITY           SKY/WX    TMP DP  RH WIND       PRES   REMARKS
JACKSON        CLEAR     33  30  88 SW6       29.84S WCI  28
LONDON         CLEAR     34  27  75 S5        29.87S WCI  30
SOMERSET       NOT AVBL
MIDDLESBORO    NOT AVBL
MONTICELLO     CLEAR     37  31  79 SW8       29.90F WCI  31
$$



USA.gov is the U.S. government's official web portal to all federal, state and local government web resources and services.